Year,Month,Day,Hour,Minute,Value (Times are PST for windspeed in km/hr)
2012,01,25,00,00,28.80
2012,01,25,00,01,38.40
2012,01,25,00,02,15.70
2012,01,25,00,03,20.60
2012,01,25,00,04,35.50
2012,01,25,00,05,27.90
2012,01,25,00,06,32.70
2012,01,25,00,07,32.30
2012,01,25,00,08,27.20
2012,01,25,00,09,23.10
2012,01,25,00,10,28.60
2012,01,25,00,11,25.80
2012,01,25,00,12,23.30
2012,01,25,00,13,22.50
2012,01,25,00,14,31.40
2012,01,25,00,15,39.00
2012,01,25,00,16,26.40
2012,01,25,00,17,25.30
2012,01,25,00,18,32.40
2012,01,25,00,19,21.50
2012,01,25,00,20,26.70
2012,01,25,00,21,21.30
2012,01,25,00,22,26.00
2012,01,25,00,23,20.80
2012,01,25,00,24,25.70
2012,01,25,00,25,30.90
2012,01,25,00,26,37.00
2012,01,25,00,27,42.10
2012,01,25,00,28,25.10
2012,01,25,00,29,40.70
2012,01,25,00,30,38.40
2012,01,25,00,31,47.30
2012,01,25,02,12,29.90
2012,01,25,02,13,24.60
2012,01,25,02,14,25.00
2012,01,25,02,15,29.50
2012,01,25,02,16,26.10
2012,01,25,02,17,16.40
2012,01,25,02,18,17.00
2012,01,25,02,19,21.80
2012,01,25,02,20,9.60
2012,01,25,02,21,12.70
2012,01,25,02,22,13.20
2012,01,25,02,23,15.90
2012,01,25,02,24,17.70
2012,01,25,02,25,17.30
2012,01,25,02,26,20.40
2012,01,25,02,27,13.40
2012,01,25,02,28,10.30
2012,01,25,02,29,13.30
2012,01,25,02,30,18.50
2012,01,25,02,31,17.40
2012,01,25,02,32,12.70
2012,01,25,02,33,12.30
2012,01,25,02,34,17.60
2012,01,25,02,35,16.80
2012,01,25,02,36,13.00
2012,01,25,02,37,22.70
2012,01,25,02,38,11.50
2012,01,25,02,39,10.20
2012,01,25,02,40,19.20
2012,01,25,02,41,22.70
2012,01,25,02,42,10.00
2012,01,25,02,43,18.00
2012,01,25,02,44,12.90
2012,01,25,02,45,15.40
2012,01,25,02,46,6.40
2012,01,25,02,47,12.00
2012,01,25,02,48,10.90
2012,01,25,02,49,4.80
2012,01,25,02,50,8.80
2012,01,25,02,51,3.90
2012,01,25,02,52,9.90
2012,01,25,02,53,28.90
2012,01,25,02,54,13.90
2012,01,25,02,55,19.10
2012,01,25,02,56,13.90
2012,01,25,02,57,16.70
2012,01,25,02,58,14.20
2012,01,25,02,59,14.60
2012,01,25,03,00,7.80
2012,01,25,03,01,6.60
2012,01,25,03,02,10.80
2012,01,25,03,03,15.70
2012,01,25,03,04,11.40
2012,01,25,03,05,6.10
2012,01,25,03,06,6.50
2012,01,25,03,07,6.70
2012,01,25,03,08,1.10
2012,01,25,03,09,0.30
2012,01,25,03,10,1.00
2012,01,25,03,11,0.30
2012,01,25,03,12,0.30
2012,01,25,03,13,0.00
2012,01,25,03,14,0.00
2012,01,25,03,15,0.10
2012,01,25,03,16,0.00
2012,01,25,03,17,0.10
2012,01,25,03,18,0.00
2012,01,25,03,19,0.00
2012,01,25,03,20,0.00
2012,01,25,03,21,0.00
2012,01,25,03,22,0.00
2012,01,25,03,23,0.00
2012,01,25,03,24,0.00
2012,01,25,03,25,0.00
2012,01,25,03,26,0.00
2012,01,25,03,27,0.00
2012,01,25,03,28,0.00
2012,01,25,03,29,1.30
2012,01,25,03,30,0.10
2012,01,25,03,31,0.00
2012,01,25,03,32,0.00
2012,01,25,03,33,0.00
2012,01,25,03,34,1.40
2012,01,25,03,35,5.70
2012,01,25,03,36,4.20
2012,01,25,03,37,3.80
2012,01,25,03,38,3.00
2012,01,25,03,39,0.50
2012,01,25,03,40,0.00
2012,01,25,03,41,0.10
2012,01,25,03,42,2.20
2012,01,25,03,43,0.10
2012,01,25,03,44,0.00
2012,01,25,03,45,1.90
2012,01,25,03,46,1.20
2012,01,25,03,47,3.30
2012,01,25,03,48,1.60
2012,01,25,03,49,2.30
2012,01,25,03,50,5.20
2012,01,25,03,51,5.90
2012,01,25,03,52,0.10
2012,01,25,03,53,0.30
2012,01,25,03,54,1.80
2012,01,25,03,55,0.80
2012,01,25,03,56,3.30
2012,01,25,03,57,0.90
2012,01,25,03,58,2.10
2012,01,25,03,59,3.00
2012,01,25,04,00,0.40
2012,01,25,04,01,0.10
2012,01,25,04,02,0.60
2012,01,25,04,03,0.00
2012,01,25,04,04,0.00
2012,01,25,04,05,0.00
2012,01,25,04,06,0.00
2012,01,25,04,07,0.00
2012,01,25,04,08,0.00
2012,01,25,04,09,0.00
2012,01,25,04,10,0.10
2012,01,25,04,11,0.00
2012,01,25,04,12,0.00
2012,01,25,04,13,0.00
2012,01,25,04,14,0.00
2012,01,25,04,15,0.80
2012,01,25,04,16,0.10
2012,01,25,04,17,7.10
2012,01,25,04,18,2.30
2012,01,25,04,19,0.00
2012,01,25,04,20,0.00
2012,01,25,04,21,0.00
2012,01,25,04,22,0.00
2012,01,25,04,23,0.00
2012,01,25,04,24,0.00
2012,01,25,04,25,0.30
2012,01,25,04,26,0.10
2012,01,25,04,27,1.00
2012,01,25,04,28,0.10
2012,01,25,04,29,0.00
2012,01,25,04,30,0.00
2012,01,25,04,31,0.60
2012,01,25,04,32,0.10
2012,01,25,04,33,0.00
2012,01,25,04,34,0.10
2012,01,25,04,35,0.00
2012,01,25,04,36,0.00
2012,01,25,04,37,0.00
2012,01,25,04,38,0.10
2012,01,25,04,39,0.00
2012,01,25,04,40,0.00
2012,01,25,04,41,0.00
2012,01,25,04,42,0.60
2012,01,25,04,43,1.50
2012,01,25,04,44,0.00
2012,01,25,04,45,0.40
2012,01,25,04,46,0.80
2012,01,25,04,47,0.10
2012,01,25,04,48,0.60
2012,01,25,04,49,0.10
2012,01,25,04,50,0.00
2012,01,25,04,51,0.00
2012,01,25,04,52,0.00
2012,01,25,04,53,0.00
2012,01,25,04,54,0.00
2012,01,25,04,55,0.00
2012,01,25,04,56,0.00
2012,01,25,04,57,0.00
2012,01,25,04,58,0.00
2012,01,25,04,59,1.60
2012,01,25,05,00,0.80
2012,01,25,05,01,0.00
2012,01,25,05,02,0.00
2012,01,25,05,03,0.00
2012,01,25,05,04,0.00
2012,01,25,05,05,0.50
2012,01,25,05,06,0.00
2012,01,25,05,07,2.10
2012,01,25,05,08,1.20
2012,01,25,05,09,0.00
2012,01,25,05,10,0.10
2012,01,25,05,11,0.10
2012,01,25,05,12,0.00
2012,01,25,05,13,0.00
2012,01,25,05,14,0.40
2012,01,25,05,15,0.30
2012,01,25,05,16,0.00
2012,01,25,05,17,0.00
2012,01,25,05,18,0.00
2012,01,25,05,19,0.00
2012,01,25,05,20,0.00
2012,01,25,05,21,0.00
2012,01,25,05,22,1.60
2012,01,25,05,23,3.70
2012,01,25,05,24,3.10
2012,01,25,05,25,2.00
2012,01,25,05,26,1.00
2012,01,25,05,27,0.10
2012,01,25,05,28,0.10
2012,01,25,05,29,0.00
2012,01,25,05,30,0.40
2012,01,25,05,31,0.80
2012,01,25,05,32,1.10
2012,01,25,05,33,0.00
2012,01,25,05,34,0.00
2012,01,25,05,35,0.20
2012,01,25,05,36,0.00
2012,01,25,05,37,0.00
2012,01,25,05,38,0.00
2012,01,25,05,39,1.50
2012,01,25,05,40,1.90
2012,01,25,05,41,0.00
2012,01,25,05,42,0.10
2012,01,25,05,43,0.00
2012,01,25,05,44,0.80
2012,01,25,05,45,1.20
2012,01,25,05,46,0.00
2012,01,25,05,47,0.00
2012,01,25,05,48,0.00
2012,01,25,05,49,0.40
2012,01,25,05,50,2.90
2012,01,25,05,51,0.40
2012,01,25,05,52,0.00
2012,01,25,05,53,0.00
2012,01,25,05,54,0.90
2012,01,25,05,55,0.20
2012,01,25,05,56,0.50
2012,01,25,05,57,0.30
2012,01,25,05,58,3.00
2012,01,25,05,59,0.80
2012,01,25,06,00,1.20
2012,01,25,06,01,1.10
2012,01,25,06,02,2.60
2012,01,25,06,03,1.20
2012,01,25,06,04,0.00
2012,01,25,06,05,2.40
2012,01,25,06,06,0.20
2012,01,25,06,07,0.40
2012,01,25,06,08,0.60
2012,01,25,06,09,0.10
2012,01,25,06,10,0.00
2012,01,25,06,11,0.60
2012,01,25,06,12,0.60
2012,01,25,06,13,0.80
2012,01,25,06,14,3.50
2012,01,25,06,15,0.70
2012,01,25,06,16,0.50
2012,01,25,06,17,0.80
2012,01,25,06,18,0.60
2012,01,25,06,19,0.40
2012,01,25,06,20,0.00
2012,01,25,06,21,0.00
2012,01,25,06,22,0.00
2012,01,25,06,23,0.00
2012,01,25,06,24,0.70
2012,01,25,06,25,0.60
2012,01,25,06,26,0.10
2012,01,25,06,27,0.00
2012,01,25,06,28,0.10
2012,01,25,06,29,0.30
2012,01,25,06,30,2.50
2012,01,25,06,31,3.10
2012,01,25,06,32,1.10
2012,01,25,06,33,0.10
2012,01,25,06,34,0.00
2012,01,25,06,35,1.80
2012,01,25,06,36,1.00
2012,01,25,06,37,1.30
2012,01,25,06,38,0.70
2012,01,25,06,39,1.10
2012,01,25,06,40,0.40
2012,01,25,06,41,1.50
2012,01,25,06,42,0.00
2012,01,25,06,43,0.00
2012,01,25,06,44,0.00
2012,01,25,06,45,0.00
2012,01,25,06,46,0.00
2012,01,25,06,47,0.20
2012,01,25,06,48,0.00
2012,01,25,06,49,0.00
2012,01,25,06,50,0.00
2012,01,25,06,51,0.00
2012,01,25,06,52,0.00
2012,01,25,06,53,0.00
2012,01,25,06,54,0.00
2012,01,25,06,55,0.00
2012,01,25,06,56,0.20
2012,01,25,06,57,0.10
2012,01,25,06,58,0.20
2012,01,25,06,59,0.10
2012,01,25,07,00,0.10
2012,01,25,07,01,0.00
2012,01,25,07,02,0.00
2012,01,25,07,03,0.00
2012,01,25,07,04,3.80
2012,01,25,07,05,3.20
2012,01,25,07,06,1.50
2012,01,25,07,07,0.00
2012,01,25,07,08,0.80
2012,01,25,07,09,3.80
2012,01,25,07,10,3.10
2012,01,25,07,11,2.70
2012,01,25,07,12,0.80
2012,01,25,07,13,2.80
2012,01,25,07,14,0.70
2012,01,25,07,15,3.50
2012,01,25,07,16,2.90
2012,01,25,07,17,0.90
2012,01,25,07,18,4.90
2012,01,25,07,19,4.30
2012,01,25,07,20,3.10
2012,01,25,07,21,4.50
2012,01,25,07,22,2.90
2012,01,25,07,23,5.60
2012,01,25,07,24,2.00
2012,01,25,07,25,3.20
2012,01,25,07,26,5.00
2012,01,25,07,27,2.80
2012,01,25,07,28,0.80
2012,01,25,07,29,0.30
2012,01,25,07,30,0.20
2012,01,25,07,31,0.30
2012,01,25,07,32,0.00
2012,01,25,07,33,1.10
2012,01,25,07,34,2.70
2012,01,25,07,35,1.50
2012,01,25,07,36,0.00
2012,01,25,07,37,0.00
2012,01,25,07,38,0.50
2012,01,25,07,39,0.00
2012,01,25,07,40,0.00
2012,01,25,07,41,0.00
2012,01,25,07,42,0.00
2012,01,25,07,43,0.00
2012,01,25,07,44,0.00
2012,01,25,07,45,0.00
2012,01,25,07,46,0.00
2012,01,25,07,47,0.00
2012,01,25,07,48,0.00
2012,01,25,07,49,0.00
2012,01,25,07,50,0.00
2012,01,25,07,51,0.00
2012,01,25,07,52,0.00
2012,01,25,07,53,0.00
2012,01,25,07,54,0.00
2012,01,25,07,55,0.00
2012,01,25,07,56,0.00
2012,01,25,07,57,0.00
2012,01,25,07,58,0.00
2012,01,25,07,59,0.00
2012,01,25,08,00,0.00
2012,01,25,08,01,0.00
2012,01,25,08,02,0.00
2012,01,25,08,03,0.10
2012,01,25,08,04,0.00
2012,01,25,08,05,0.00
2012,01,25,08,06,0.00
2012,01,25,08,07,0.00
2012,01,25,08,08,0.00
2012,01,25,08,09,0.00
2012,01,25,08,10,0.00
2012,01,25,08,11,0.00
2012,01,25,08,12,0.00
2012,01,25,08,13,0.00
2012,01,25,08,14,0.00
2012,01,25,08,15,0.00
2012,01,25,08,16,0.00
2012,01,25,08,17,0.00
2012,01,25,08,18,0.00
2012,01,25,08,19,0.00
2012,01,25,08,20,0.00
2012,01,25,08,21,0.00
2012,01,25,08,22,0.00
2012,01,25,08,23,0.00
2012,01,25,08,24,0.00
2012,01,25,08,25,0.00
2012,01,25,08,26,0.00
2012,01,25,08,27,0.00
2012,01,25,08,28,0.00
2012,01,25,08,29,0.00
2012,01,25,08,30,0.00
2012,01,25,08,31,0.00
2012,01,25,08,32,0.00
2012,01,25,08,33,0.00
2012,01,25,08,34,0.00
2012,01,25,08,35,0.00
2012,01,25,08,36,0.00
2012,01,25,08,37,0.00
2012,01,25,08,38,0.00
2012,01,25,08,39,0.00
2012,01,25,08,40,0.00
2012,01,25,08,41,0.00
2012,01,25,08,42,0.00
2012,01,25,08,43,0.00
2012,01,25,08,44,0.00
2012,01,25,08,45,0.00
2012,01,25,08,46,0.00
2012,01,25,08,47,0.00
2012,01,25,08,48,0.00
2012,01,25,08,49,0.00
2012,01,25,08,50,0.00
2012,01,25,08,51,1.50
2012,01,25,08,52,0.40
2012,01,25,08,53,0.10
2012,01,25,08,54,0.00
2012,01,25,08,55,0.40
2012,01,25,08,56,0.60
2012,01,25,08,57,0.00
2012,01,25,08,58,0.00
2012,01,25,08,59,0.70
2012,01,25,09,00,0.40
2012,01,25,09,01,0.30
2012,01,25,09,02,0.10
2012,01,25,09,03,1.70
2012,01,25,09,04,0.30
2012,01,25,09,05,0.10
2012,01,25,09,06,1.00
2012,01,25,09,07,3.00
2012,01,25,09,08,0.50
2012,01,25,09,09,0.50
2012,01,25,09,10,0.70
2012,01,25,09,11,1.70
2012,01,25,09,12,1.60
2012,01,25,09,13,0.40
2012,01,25,09,14,0.20
2012,01,25,09,15,2.00
2012,01,25,09,16,1.30
2012,01,25,09,17,1.00
2012,01,25,09,18,3.30
2012,01,25,09,19,8.40
2012,01,25,09,20,8.90
2012,01,25,09,21,11.80
2012,01,25,09,22,15.00
2012,01,25,09,23,13.00
2012,01,25,09,24,10.00
2012,01,25,09,25,9.90
2012,01,25,09,26,8.70
2012,01,25,09,27,7.00
2012,01,25,09,28,8.30
2012,01,25,09,29,5.50
2012,01,25,09,30,3.40
2012,01,25,09,31,5.20
2012,01,25,09,32,1.30
2012,01,25,09,33,0.00
2012,01,25,09,34,0.00
2012,01,25,09,35,0.00
2012,01,25,09,36,1.20
2012,01,25,09,37,1.20
2012,01,25,09,38,1.60
2012,01,25,09,39,2.30
2012,01,25,09,40,4.90
2012,01,25,09,41,1.90
2012,01,25,09,42,3.20
2012,01,25,09,43,1.50
2012,01,25,09,44,0.40
2012,01,25,09,45,0.90
2012,01,25,09,46,0.60
2012,01,25,09,47,0.00
2012,01,25,09,48,0.10
2012,01,25,09,49,0.00
2012,01,25,09,50,0.00
2012,01,25,09,51,0.00
2012,01,25,09,52,0.00
2012,01,25,09,53,0.00
2012,01,25,09,54,0.40
2012,01,25,09,55,0.10
2012,01,25,09,56,0.50
2012,01,25,09,57,0.00
2012,01,25,09,58,0.00
2012,01,25,09,59,0.00
2012,01,25,10,00,0.10
2012,01,25,10,01,1.00
2012,01,25,10,02,0.70
2012,01,25,10,03,0.10
2012,01,25,10,04,0.20
2012,01,25,10,05,0.10
2012,01,25,10,06,0.00
2012,01,25,10,07,0.00
2012,01,25,10,08,0.00
2012,01,25,10,09,0.00
2012,01,25,10,10,0.00
2012,01,25,10,11,0.00
2012,01,25,10,12,0.30
2012,01,25,10,13,0.00
2012,01,25,10,14,0.60
2012,01,25,10,15,0.20
2012,01,25,10,16,0.00
2012,01,25,10,17,0.00
2012,01,25,10,18,0.00
2012,01,25,10,19,0.00
2012,01,25,10,20,0.00
2012,01,25,10,21,0.00
2012,01,25,10,22,0.00
2012,01,25,10,23,0.10
2012,01,25,10,24,1.20
2012,01,25,10,25,3.50
2012,01,25,10,26,1.50
2012,01,25,10,27,0.90
2012,01,25,10,28,1.30
2012,01,25,10,29,0.00
2012,01,25,10,30,0.30
2012,01,25,10,31,2.10
2012,01,25,10,32,0.10
2012,01,25,10,33,0.00
2012,01,25,10,34,0.00
2012,01,25,10,35,0.10
2012,01,25,10,36,1.20
2012,01,25,10,37,0.00
2012,01,25,10,38,1.20
2012,01,25,10,39,1.20
2012,01,25,10,40,3.10
2012,01,25,10,41,7.10
2012,01,25,10,42,7.00
2012,01,25,10,43,3.50
2012,01,25,10,44,0.20
2012,01,25,10,45,1.80
2012,01,25,10,46,2.10
2012,01,25,10,47,2.00
2012,01,25,10,48,10.00
2012,01,25,10,49,5.10
2012,01,25,10,50,6.70
2012,01,25,10,51,8.90
2012,01,25,10,52,5.20
2012,01,25,10,53,7.20
2012,01,25,10,54,10.20
2012,01,25,10,55,11.60
2012,01,25,10,56,11.00
2012,01,25,10,57,6.00
2012,01,25,10,58,5.50
2012,01,25,10,59,6.10
2012,01,25,11,00,10.20
2012,01,25,11,01,15.90
2012,01,25,11,02,16.10
2012,01,25,11,03,8.30
2012,01,25,11,04,15.40
2012,01,25,11,05,17.00
2012,01,25,11,06,13.40
2012,01,25,11,07,14.90
2012,01,25,11,08,9.90
2012,01,25,11,09,16.90
2012,01,25,11,10,18.60
2012,01,25,11,11,18.20
2012,01,25,11,12,17.60
2012,01,25,11,13,20.20
2012,01,25,11,14,16.20
2012,01,25,11,15,10.60
2012,01,25,11,16,13.00
2012,01,25,11,17,8.90
2012,01,25,11,18,10.40
2012,01,25,11,19,10.30
2012,01,25,11,20,9.20
2012,01,25,11,21,11.30
2012,01,25,11,22,8.30
2012,01,25,11,23,11.80
2012,01,25,11,24,8.10
2012,01,25,11,25,7.90
2012,01,25,11,26,5.00
2012,01,25,11,27,5.00
2012,01,25,11,28,11.40
2012,01,25,11,29,6.40
2012,01,25,11,30,5.70
2012,01,25,11,31,8.40
2012,01,25,11,32,6.60
2012,01,25,11,33,7.40
2012,01,25,11,34,4.80
2012,01,25,11,35,3.00
2012,01,25,11,36,7.10
2012,01,25,11,37,6.90
2012,01,25,11,38,4.60
2012,01,25,11,39,4.80
2012,01,25,11,40,6.60
2012,01,25,11,41,5.90
2012,01,25,11,42,4.90
2012,01,25,11,43,2.50
2012,01,25,11,44,7.10
2012,01,25,11,45,10.50
2012,01,25,11,46,4.80
2012,01,25,11,47,4.90
2012,01,25,11,48,2.20
2012,01,25,11,49,6.10
2012,01,25,11,50,6.60
2012,01,25,11,51,6.90
2012,01,25,11,52,7.60
2012,01,25,11,53,7.80
2012,01,25,11,54,7.60
2012,01,25,11,55,6.70
2012,01,25,11,56,6.80
2012,01,25,11,57,6.90
2012,01,25,11,58,5.90
2012,01,25,11,59,3.70
2012,01,25,12,00,1.70
2012,01,25,12,01,1.50
2012,01,25,12,02,0.80
2012,01,25,12,03,0.10
2012,01,25,12,04,0.00
2012,01,25,12,05,1.50
2012,01,25,12,06,3.80
2012,01,25,12,07,6.50
2012,01,25,12,08,5.60
2012,01,25,12,09,6.00
2012,01,25,12,10,6.00
2012,01,25,12,11,2.30
2012,01,25,12,12,3.30
2012,01,25,12,13,5.00
2012,01,25,12,14,2.90
2012,01,25,12,15,0.10
2012,01,25,12,16,2.00
2012,01,25,12,17,0.80
2012,01,25,12,18,0.00
2012,01,25,12,19,2.90
2012,01,25,12,20,6.00
2012,01,25,12,21,1.10
2012,01,25,12,22,0.20
2012,01,25,12,23,0.40
2012,01,25,12,24,0.10
2012,01,25,12,25,0.00
2012,01,25,12,26,0.10
2012,01,25,12,27,0.20
2012,01,25,12,28,0.00
2012,01,25,12,29,0.00
2012,01,25,12,30,0.10
2012,01,25,12,31,0.00
2012,01,25,12,32,0.00
2012,01,25,12,33,1.80
2012,01,25,12,34,2.30
2012,01,25,12,35,3.10
2012,01,25,12,36,1.80
2012,01,25,12,37,0.20
2012,01,25,12,38,0.00
2012,01,25,12,39,0.00
2012,01,25,12,40,3.10
2012,01,25,12,41,1.70
2012,01,25,12,42,3.80
2012,01,25,12,43,2.50
2012,01,25,12,44,0.00
2012,01,25,12,45,0.10
2012,01,25,12,46,3.30
2012,01,25,12,47,3.80
2012,01,25,12,48,5.40
2012,01,25,12,49,3.00
2012,01,25,12,50,1.50
2012,01,25,12,51,2.20
2012,01,25,12,52,0.80
2012,01,25,12,53,1.30
2012,01,25,12,54,2.00
2012,01,25,12,55,0.10
2012,01,25,12,56,0.00
2012,01,25,12,57,0.00
2012,01,25,12,58,0.00
2012,01,25,12,59,0.00
2012,01,25,13,00,0.00
2012,01,25,13,01,0.40
2012,01,25,13,02,3.20
2012,01,25,13,03,6.20
2012,01,25,13,04,5.30
2012,01,25,13,05,1.80
2012,01,25,13,06,1.90
2012,01,25,13,07,3.70
2012,01,25,13,08,1.30
2012,01,25,13,09,0.00
2012,01,25,13,10,0.00
2012,01,25,13,11,0.00
2012,01,25,13,12,0.00
2012,01,25,13,13,0.00
2012,01,25,13,14,0.00
2012,01,25,13,15,0.00
2012,01,25,13,16,0.00
2012,01,25,13,17,0.00
2012,01,25,13,18,0.50
2012,01,25,13,19,0.00
2012,01,25,13,20,0.00
2012,01,25,13,21,0.00
2012,01,25,13,22,0.00
2012,01,25,13,23,0.00
2012,01,25,13,24,0.00
2012,01,25,13,25,0.00
2012,01,25,13,26,0.00
2012,01,25,13,27,0.00
2012,01,25,13,28,0.00
2012,01,25,13,29,0.00
2012,01,25,13,30,0.00
2012,01,25,13,31,0.00
2012,01,25,13,32,0.00
2012,01,25,13,33,0.00
2012,01,25,13,34,0.00
2012,01,25,13,35,0.00
2012,01,25,13,36,0.00
2012,01,25,13,37,0.00
2012,01,25,13,38,0.00
2012,01,25,13,39,0.00
2012,01,25,13,40,0.60
2012,01,25,13,41,0.00
2012,01,25,13,42,0.10
2012,01,25,13,43,0.70
2012,01,25,13,44,0.00
2012,01,25,13,45,0.00
2012,01,25,13,46,0.00
2012,01,25,13,47,0.00
2012,01,25,13,48,0.00
2012,01,25,13,49,0.50
2012,01,25,13,50,0.10
2012,01,25,13,51,0.00
2012,01,25,13,52,0.50
2012,01,25,13,53,0.20
2012,01,25,13,54,0.00
2012,01,25,13,55,0.00
2012,01,25,13,56,0.30
2012,01,25,13,57,0.00
2012,01,25,13,58,0.10
2012,01,25,13,59,0.00
2012,01,25,14,00,1.30
2012,01,25,14,01,0.50
2012,01,25,14,02,0.60
2012,01,25,14,03,1.50
2012,01,25,14,04,0.10
2012,01,25,14,05,0.00
2012,01,25,14,06,0.00
2012,01,25,14,07,0.00
2012,01,25,14,08,0.00
2012,01,25,14,09,0.00
2012,01,25,14,10,0.00
2012,01,25,14,11,0.00
2012,01,25,14,12,0.00
2012,01,25,14,13,0.00
2012,01,25,14,14,0.60
2012,01,25,14,15,3.80
2012,01,25,14,16,2.50
2012,01,25,14,17,11.20
2012,01,25,14,18,6.90
2012,01,25,14,19,1.20
2012,01,25,14,20,1.10
2012,01,25,14,21,0.00
2012,01,25,14,22,3.00
2012,01,25,14,23,3.10
2012,01,25,14,24,0.00
2012,01,25,14,25,0.10
2012,01,25,14,26,0.00
2012,01,25,14,27,0.00
2012,01,25,14,28,1.10
2012,01,25,14,29,6.00
2012,01,25,14,30,1.10
2012,01,25,14,31,0.20
2012,01,25,14,32,0.00
2012,01,25,14,33,0.00
2012,01,25,14,34,3.80
2012,01,25,14,35,9.00
2012,01,25,14,36,10.20
2012,01,25,14,37,8.40
2012,01,25,14,38,6.40
2012,01,25,14,39,5.40
2012,01,25,14,40,2.20
2012,01,25,14,41,1.80
2012,01,25,14,42,1.20
2012,01,25,14,43,1.40
2012,01,25,14,44,7.20
2012,01,25,14,45,5.60
2012,01,25,14,46,5.40
2012,01,25,14,47,4.20
2012,01,25,14,48,7.40
2012,01,25,14,49,12.50
2012,01,25,14,50,3.90
2012,01,25,14,51,3.80
2012,01,25,14,52,3.90
2012,01,25,14,53,10.40
2012,01,25,14,54,12.70
2012,01,25,14,55,4.00
2012,01,25,14,56,6.90
2012,01,25,14,57,7.20
2012,01,25,14,58,6.40
2012,01,25,14,59,14.10
2012,01,25,15,00,14.10
2012,01,25,15,01,16.80
2012,01,25,15,02,10.30
2012,01,25,15,03,22.20
2012,01,25,15,04,19.90
2012,01,25,15,05,14.70
2012,01,25,15,06,10.90
2012,01,25,15,07,14.30
2012,01,25,15,08,10.20
2012,01,25,15,09,21.70
2012,01,25,15,10,17.00
2012,01,25,15,11,18.60
2012,01,25,15,12,13.10
2012,01,25,15,13,15.00
2012,01,25,15,14,9.10
2012,01,25,15,15,12.00
2012,01,25,15,16,8.50
2012,01,25,15,17,3.90
2012,01,25,15,18,3.90
2012,01,25,15,19,3.90
2012,01,25,15,20,2.90
2012,01,25,15,21,6.90
2012,01,25,15,22,6.00
2012,01,25,15,23,2.80
2012,01,25,15,24,1.60
2012,01,25,15,25,3.10
2012,01,25,15,26,8.00
2012,01,25,15,27,5.90
2012,01,25,15,28,6.20
2012,01,25,15,29,10.70
2012,01,25,15,30,14.60
2012,01,25,15,31,5.30
2012,01,25,15,32,2.40
2012,01,25,15,33,2.40
2012,01,25,15,34,2.40
2012,01,25,15,35,0.80
2012,01,25,15,36,0.80
2012,01,25,15,37,3.30
2012,01,25,15,38,6.90
2012,01,25,15,39,0.70
2012,01,25,15,40,0.10
2012,01,25,15,41,0.50
2012,01,25,15,42,0.30
2012,01,25,15,43,1.50
2012,01,25,15,44,0.40
2012,01,25,15,45,0.00
2012,01,25,15,46,0.00
2012,01,25,15,47,0.00
2012,01,25,15,48,0.00
2012,01,25,15,49,0.00
2012,01,25,15,50,0.00
2012,01,25,15,51,0.10
2012,01,25,15,52,0.10
2012,01,25,15,53,0.20
2012,01,25,15,54,2.70
2012,01,25,15,55,3.60
2012,01,25,15,56,7.10
2012,01,25,15,57,4.30
2012,01,25,15,58,0.80
2012,01,25,15,59,0.40
2012,01,25,16,00,3.80
2012,01,25,16,01,10.30
2012,01,25,16,02,10.20
2012,01,25,16,03,5.00
2012,01,25,16,04,1.60
2012,01,25,16,05,6.10
2012,01,25,16,06,5.50
2012,01,25,16,07,3.80
2012,01,25,16,08,1.10
2012,01,25,16,09,0.00
2012,01,25,16,10,0.00
2012,01,25,16,11,0.40
2012,01,25,16,12,0.10
2012,01,25,16,13,0.00
2012,01,25,16,14,0.00
2012,01,25,16,15,0.00
2012,01,25,16,16,0.00
2012,01,25,16,17,0.10
2012,01,25,16,18,0.00
2012,01,25,16,19,0.30
2012,01,25,16,20,0.60
2012,01,25,16,21,0.20
2012,01,25,16,22,0.40
2012,01,25,16,23,0.80
2012,01,25,16,24,1.30
2012,01,25,16,25,0.10
2012,01,25,16,26,1.10
2012,01,25,16,27,1.50
2012,01,25,16,28,0.10
2012,01,25,16,29,0.00
2012,01,25,16,30,0.00
2012,01,25,16,31,0.00
2012,01,25,16,32,0.00
2012,01,25,16,33,0.00
2012,01,25,16,34,0.80
2012,01,25,16,35,0.10
2012,01,25,16,36,0.30
2012,01,25,16,37,0.00
2012,01,25,16,38,0.00
2012,01,25,16,39,0.10
2012,01,25,16,40,0.60
2012,01,25,16,41,0.00
2012,01,25,16,42,0.00
2012,01,25,16,43,0.00
2012,01,25,16,44,0.00
2012,01,25,16,45,0.00
2012,01,25,16,46,0.00
2012,01,25,16,47,0.00
2012,01,25,16,48,0.00
2012,01,25,16,49,0.00
2012,01,25,16,50,0.00
2012,01,25,16,51,0.00
2012,01,25,16,52,0.00
2012,01,25,16,53,0.00
2012,01,25,16,54,0.90
2012,01,25,16,55,5.30
2012,01,25,16,56,0.40
2012,01,25,16,57,0.10
2012,01,25,16,58,0.30
2012,01,25,16,59,0.20
2012,01,25,17,00,1.00
2012,01,25,17,01,0.40
2012,01,25,17,02,0.10
2012,01,25,17,03,0.20
2012,01,25,17,04,0.10
2012,01,25,17,05,0.00
2012,01,25,17,06,1.20
2012,01,25,17,07,1.00
2012,01,25,17,08,0.20
2012,01,25,17,09,1.00
2012,01,25,17,10,0.40
2012,01,25,17,11,0.00
2012,01,25,17,12,0.00
2012,01,25,17,13,0.00
2012,01,25,17,14,0.00
2012,01,25,17,15,0.10
2012,01,25,17,16,0.00
2012,01,25,17,17,0.90
2012,01,25,17,18,4.10
2012,01,25,17,19,2.50
2012,01,25,17,20,0.90
2012,01,25,17,21,1.50
2012,01,25,17,22,2.20
2012,01,25,17,23,0.00
2012,01,25,17,24,1.00
2012,01,25,17,25,0.00
2012,01,25,17,26,0.00
2012,01,25,17,27,0.10
2012,01,25,17,28,0.10
2012,01,25,17,29,1.20
2012,01,25,17,30,2.50
2012,01,25,17,31,0.50
2012,01,25,17,32,0.00
2012,01,25,17,33,0.00
2012,01,25,17,34,0.00
2012,01,25,17,35,0.80
2012,01,25,17,36,1.00
2012,01,25,17,37,0.70
2012,01,25,17,38,1.10
2012,01,25,17,39,0.00
2012,01,25,17,40,0.10
2012,01,25,17,41,1.70
2012,01,25,17,42,0.10
2012,01,25,17,43,0.20
2012,01,25,17,44,0.70
2012,01,25,17,45,1.80
2012,01,25,17,46,2.40
2012,01,25,17,47,0.20
2012,01,25,17,48,0.70
2012,01,25,17,49,0.00
2012,01,25,17,50,0.20
2012,01,25,17,51,0.00
2012,01,25,17,52,0.00
2012,01,25,17,53,0.00
2012,01,25,17,54,0.00
2012,01,25,17,55,0.00
2012,01,25,17,56,0.00
2012,01,25,17,57,0.00
2012,01,25,17,58,1.30
2012,01,25,17,59,0.60
2012,01,25,18,00,1.30
2012,01,25,18,01,2.00
2012,01,25,18,02,2.50
2012,01,25,18,03,1.50
2012,01,25,18,04,3.80
2012,01,25,18,05,0.30
2012,01,25,18,06,1.20
2012,01,25,18,07,0.10
2012,01,25,18,08,0.00
2012,01,25,18,09,2.40
2012,01,25,18,10,0.20
2012,01,25,18,11,0.10
2012,01,25,18,12,0.20
2012,01,25,18,13,0.00
2012,01,25,18,14,1.20
2012,01,25,18,15,0.70
2012,01,25,18,16,0.00
2012,01,25,18,17,0.00
2012,01,25,18,18,0.00
2012,01,25,18,19,0.00
2012,01,25,18,20,0.00
2012,01,25,18,21,0.00
2012,01,25,18,22,0.00
2012,01,25,18,23,0.10
2012,01,25,18,24,0.10
2012,01,25,18,25,0.00
2012,01,25,18,26,0.00
2012,01,25,18,27,0.00
2012,01,25,18,28,0.00
2012,01,25,18,29,0.00
2012,01,25,18,30,0.00
2012,01,25,18,31,0.00
2012,01,25,18,32,0.10
2012,01,25,18,33,0.00
2012,01,25,18,34,0.00
2012,01,25,18,35,0.00
2012,01,25,18,36,1.30
2012,01,25,18,37,2.70
2012,01,25,18,38,0.40
2012,01,25,18,39,0.60
2012,01,25,18,40,0.40
2012,01,25,18,41,0.90
2012,01,25,18,42,1.70
2012,01,25,18,43,0.90
2012,01,25,18,44,0.40
2012,01,25,18,45,1.30
2012,01,25,18,46,1.90
2012,01,25,18,47,1.20
2012,01,25,18,48,0.50
2012,01,25,18,49,1.40
2012,01,25,18,50,0.60
2012,01,25,18,51,0.00
2012,01,25,18,52,0.40
2012,01,25,18,53,1.20
2012,01,25,18,54,2.10
2012,01,25,18,55,0.70
2012,01,25,18,56,1.80
2012,01,25,18,57,0.50
2012,01,25,18,58,2.00
2012,01,25,18,59,1.30
2012,01,25,19,00,0.90
2012,01,25,19,01,1.50
2012,01,25,19,02,1.50
2012,01,25,19,03,3.30
2012,01,25,19,04,0.70
2012,01,25,19,05,2.30
2012,01,25,19,06,3.40
2012,01,25,19,07,2.30
2012,01,25,19,08,1.60
2012,01,25,19,09,1.80
2012,01,25,19,10,2.90
2012,01,25,19,11,0.60
2012,01,25,19,12,1.90
2012,01,25,19,13,3.40
2012,01,25,19,14,2.60
2012,01,25,19,15,1.30
2012,01,25,19,16,0.40
2012,01,25,19,17,2.20
2012,01,25,19,18,1.50
2012,01,25,19,19,2.30
2012,01,25,19,20,4.30
2012,01,25,19,21,1.70
2012,01,25,19,22,2.90
2012,01,25,19,23,2.40
2012,01,25,19,24,0.80
2012,01,25,19,25,2.20
2012,01,25,19,26,0.90
2012,01,25,19,27,1.50
2012,01,25,19,28,1.70
2012,01,25,19,29,1.50
2012,01,25,19,30,2.20
2012,01,25,19,31,2.90
2012,01,25,19,32,0.30
2012,01,25,19,33,0.00
2012,01,25,19,34,0.00
2012,01,25,19,35,0.20
2012,01,25,19,36,0.50
2012,01,25,19,37,0.10
2012,01,25,19,38,0.00
2012,01,25,19,39,0.00
2012,01,25,19,40,0.70